Location: Hermaringen
(48.5952°N, 10.2585°E)
Time: 06:58:31
(UTC+00:00)

Cosmos 2251 Rocket - Pass Details

Date: 18 November 2025
Orbit: 760 x 788 km, 74.0° (Epoch: 13 December)

Event Time Altitude Azimuth Distance (km) Brightness Sun altitude
Rises 17:26:31 0° 202° (SSW) 3,232 7.2 -18.0°
Reaches altitude 10° 17:28:52 10° 203° (SSW) 2,314 6.4 -18.4°
Maximum altitude 17:34:08 86° 293° (WNW) 787 3.5 -19.3°
Enters shadow 17:38:36 15° 22° (NNE) 2,009 5.4 -20.0°
